Location: Campillo
(40.8621°N, 4.2488°W)
Time: 00:20:24
(UTC+00:00)

USA 308 - Pass Details

Date: 24 September 2021
Orbit: 566 x 573 km, 54.0° (Epoch: 23 September)

Event Time Altitude Azimuth Distance (km) Brightness Sun altitude
Rises 19:20:36 0° 307° (NW) 2,769 7.6 -14.0°
Reaches altitude 10° 19:23:49 10° 332° (NNW) 1,873 6.1 -14.6°
Maximum altitude 19:26:09 14° 6° (N) 1,615 5.3 -15.0°
Drops below altitude 10° 19:28:29 10° 39° (NE) 1,875 5.3 -15.5°
Enters shadow 19:28:51 - 43° (NE) 1,955 5.3 -15.5°
